CDT,Max TemperatureF,Mean TemperatureF,Min TemperatureF,Max Dew PointF,MeanDew PointF,Min DewpointF,Max Humidity, Mean Humidity, Min Humidity, Max Sea Level PressureIn, Mean Sea Level PressureIn, Min Sea Level PressureIn, Max VisibilityMiles, Mean VisibilityMiles, Min VisibilityMiles, Max Wind SpeedMPH, Mean Wind SpeedMPH, Max Gust SpeedMPH,PrecipitationIn, CloudCover, Events, WindDirDegrees
2012-6-1,69,56,44,46,40,32,93,55,28,30.00,29.89,29.80,10,10,10,8,2,,0.00,2,,261
2012-6-2,73,63,53,52,46,43,88,57,33,29.81,29.79,29.76,10,10,7,12,4,17,0.00,3,,316
2012-6-3,75,65,55,54,50,46,82,59,38,29.85,29.81,29.78,10,10,10,13,3,17,0.00,3,,137
2012-6-4,80,68,55,59,53,45,94,57,30,29.97,29.92,29.85,10,10,7,12,3,,0.00,3,,351
2012-6-5,80,68,57,61,52,45,94,58,28,30.03,29.99,29.96,10,10,2,12,4,9,0.00,0,,74
2012-6-6,80,70,59,57,55,52,88,58,37,30.04,30.02,29.99,10,10,10,12,5,20,0.00,0,,139
2012-6-7,80,71,62,66,62,55,100,75,51,30.11,30.04,29.96,10,10,1,7,4,,0.41,2,Rain-Thunderstorm,166
2012-6-8,87,76,66,64,59,54,83,59,33,29.97,29.87,29.74,10,10,10,10,4,18,0.00,1,Rain,209
2012-6-9,87,78,68,57,55,52,64,45,29,29.76,29.69,29.60,10,10,10,13,5,22,0.00,0,,171
2012-6-10,87,74,60,72,61,54,100,65,45,29.79,29.64,29.55,10,10,3,18,8,38,0.91,4,Rain-Thunderstorm,171
2012-6-11,68,60,53,61,51,39,100,70,40,30.03,29.83,29.70,10,10,5,22,7,33,0.00,2,,273
2012-6-12,66,56,46,45,39,36,82,54,32,30.21,30.14,30.04,10,10,10,16,9,24,0.00,2,,308
2012-6-13,71,63,55,55,49,43,94,62,43,30.13,30.00,29.88,10,10,7,18,6,25,0.02,3,Rain,146
2012-6-14,82,71,60,73,61,48,100,79,56,29.90,29.78,29.70,10,10,2,30,11,37,0.34,3,Rain-Thunderstorm,129
2012-6-15,80,70,60,68,61,54,100,75,42,30.03,29.98,29.90,10,8,0,10,3,,0.00,2,Fog-Rain,72
2012-6-16,78,69,60,70,60,45,94,72,36,29.99,29.90,29.84,10,10,5,17,4,28,0.00,2,,301
2012-6-17,75,65,55,63,56,52,88,71,47,29.90,29.74,29.38,10,10,7,21,5,30,0.01,1,Rain-Thunderstorm,168
2012-6-18,89,76,64,82,63,54,100,64,31,29.67,29.54,29.43,10,10,5,10,2,,0.00,0,,293
2012-6-19,91,78,64,82,70,57,100,84,55,29.75,29.64,29.58,10,9,2,21,9,25,0.00,5,Rain-Thunderstorm,124
2012-6-20,80,70,60,73,65,59,100,86,69,29.90,29.76,29.61,10,10,1,25,7,36,0.00,4,Rain-Thunderstorm,268
2012-6-21,78,68,57,59,55,52,94,69,39,30.04,29.98,29.90,10,10,10,16,7,24,0.00,1,,280
2012-6-22,82,68,55,63,54,48,94,61,32,30.06,30.01,29.96,10,10,10,10,3,,0.00,0,Thunderstorm,286
2012-6-23,80,72,64,66,61,55,88,69,44,29.97,29.91,29.87,10,10,7,14,5,20,0.00,2,Rain,146
2012-6-24,84,74,64,70,64,57,94,72,45,30.11,30.01,29.91,10,10,7,13,4,17,0.00,1,,54
2012-6-25,78,68,57,59,50,45,88,56,32,30.19,30.12,30.01,10,10,10,18,8,23,0.00,0,,106
2012-6-26,80,68,57,55,52,46,88,56,30,30.04,29.89,29.71,10,10,10,17,9,25,0.00,1,,141
2012-6-27,93,81,69,75,65,55,89,60,49,29.78,29.68,29.63,10,10,10,12,6,20,0.00,1,Thunderstorm,145
2012-6-28,86,75,64,75,55,46,89,52,27,29.97,29.91,29.76,10,10,10,15,6,18,0.00,1,,330
2012-6-29,89,73,57,72,62,54,94,65,31,29.93,29.88,29.81,10,10,10,7,1,,0.00,0,,271
2012-6-30,91,78,64,73,63,57,100,65,31,29.91,29.87,29.83,10,10,7,7,2,,0.00,0,,32